Location: Augustenthal
(51.7167°N, 10.2833°E)
Time: 18:09:26
(UTC+00:00)

SL-27 R/B - Pass Details

Date: 18 May 2021
Orbit: 417 x 468 km, 74.7° (Epoch: 21 June)

Event Time Altitude Azimuth Distance (km) Brightness Sun altitude
Rises 21:31:42 0° 337° (NNW) 2,392 8.0 -15.0°
Reaches altitude 10° 21:33:45 10° 340° (NNW) 1,527 6.5 -15.2°
Maximum altitude 21:37:06 71° 65° (ENE) 459 2.4 -15.4°
Enters shadow 21:38:21 35° 141° (SE) 716 2.9 -15.4°
